PQube® 3

Power Sensors Ltd.

PQube 3 - Power Quality & Power Flow - PSL - Alameda, California

Main Electrical Service
Monitoring two 3ph breakers


 
2017/03 PQube 3 Events
DateTimeTypeMagnitudeDuration in SecondsFiles
2017/03/31T 17:22:34:137 PDTPhase Current Trigger------
2017/03/31T 16:43:31:112 PDTPhase Current Trigger------
2017/03/31T 16:07:18:009 PDTPhase Current Trigger------
2017/03/31T 14:47:03:916 PDTPhase Current Trigger------
2017/03/31T 12:00:26:046 PDTSnapshot------
2017/03/31T 10:24:27:239 PDTVoltage Sag88.65%0.050
2017/03/31T 10:24:27:231 PDTWaveshape Change------
2017/03/30T 12:00:24:907 PDTSnapshot------
2017/03/30T 06:35:15:916 PDTVoltage Sag58.91%0.058
2017/03/30T 02:52:27:459 PDTVoltage Sag87.64%0.067
2017/03/30T 02:52:27:451 PDTWaveshape Change------
2017/03/29T 15:31:50:621 PDTPhase Current Trigger------
2017/03/29T 15:00:43:525 PDTPhase Current Trigger------
2017/03/29T 14:37:06:636 PDTProbe A Mechanical Shock0.23m/s²---
2017/03/29T 12:00:23:775 PDTSnapshot------
2017/03/28T 12:00:22:647 PDTSnapshot------
2017/03/27T 16:18:38:576 PDTWaveshape Change------
2017/03/27T 12:00:21:336 PDTSnapshot------
2017/03/26T 12:00:20:316 PDTSnapshot------
2017/03/25T 12:00:19:154 PDTSnapshot------
2017/03/25T 06:38:15:664 PDTProbe A Mechanical Shock0.93m/s²---
2017/03/24T 12:00:17:781 PDTSnapshot------
2017/03/24T 11:22:48:345 PDTProbe A Mechanical Shock0.73m/s²---
2017/03/24T 05:25:38:972 PDTProbe A Mechanical Shock0.80m/s²---
2017/03/24T 05:02:14:598 PDTProbe A Mechanical Shock0.90m/s²---
2017/03/24T 04:40:30:316 PDTProbe A Mechanical Shock0.22m/s²---
2017/03/23T 12:00:17:191 PDTSnapshot------
2017/03/23T 10:42:25:375 PDTWaveshape Change------
2017/03/23T 09:48:24:133 PDTInterruption0.00%15.494
2017/03/23T 09:48:18:223 PDTInterruption0.00%5.465
2017/03/23T 09:24:02:850 PDTWaveshape Change------
2017/03/22T 14:15:53:372 PDTWaveshape Change------
2017/03/22T 14:07:44:375 PDTWaveshape Change------
2017/03/22T 13:01:12:023 PDTSnapshot------
2017/03/22T 04:59:49:464 PDTProbe A Mechanical Shock0.64m/s²---
2017/03/22T 04:59:03:607 PDTProbe A Mechanical Shock0.41m/s²---
2017/03/22T 04:13:57:003 PDTRVC9.68%0.042
2017/03/22T 04:13:56:995 PDTWaveshape Change------
2017/03/22T 02:43:56:533 PDTProbe A Mechanical Shock0.55m/s²---
2017/03/22T 02:15:03:423 PDTProbe A Mechanical Shock0.94m/s²---
2017/03/22T 02:07:59:777 PDTProbe A Mechanical Shock0.96m/s²---
2017/03/22T 02:06:15:842 PDTProbe A Mechanical Shock0.34m/s²---
2017/03/22T 01:59:44:068 PDTProbe A Mechanical Shock0.28m/s²---
2017/03/22T 01:49:16:691 PDTProbe A Mechanical Shock0.93m/s²---
2017/03/22T 01:11:19:815 PDTProbe A Mechanical Shock0.70m/s²---
2017/03/22T 01:10:18:280 PDTProbe A Mechanical Shock0.71m/s²---
2017/03/22T 01:09:26:920 PDTProbe A Mechanical Shock1.33m/s²---
2017/03/22T 01:08:54:376 PDTProbe A Mechanical Shock0.46m/s²---
2017/03/22T 01:08:30:799 PDTProbe A Mechanical Shock0.81m/s²---
2017/03/22T 01:08:10:348 PDTProbe A Mechanical Shock0.53m/s²---
2017/03/22T 01:07:42:313 PDTProbe A Mechanical Shock0.55m/s²---
2017/03/22T 01:07:20:329 PDTProbe A Mechanical Shock0.70m/s²---
2017/03/22T 01:06:45:995 PDTProbe A Mechanical Shock1.05m/s²---
2017/03/22T 01:06:28:873 PDTProbe A Mechanical Shock1.05m/s²---
2017/03/22T 01:05:47:274 PDTProbe A Mechanical Shock0.49m/s²---
2017/03/22T 01:05:25:962 PDTProbe A Mechanical Shock0.43m/s²---
2017/03/22T 01:04:53:129 PDTProbe A Mechanical Shock0.64m/s²---
2017/03/22T 01:03:57:486 PDTProbe A Mechanical Shock0.74m/s²---
2017/03/22T 01:03:17:579 PDTProbe A Mechanical Shock0.84m/s²---
2017/03/22T 01:02:09:579 PDTProbe A Mechanical Shock0.96m/s²---
2017/03/22T 01:01:31:248 PDTProbe A Mechanical Shock0.70m/s²---
2017/03/22T 01:01:16:840 PDTProbe A Mechanical Shock0.60m/s²---
2017/03/22T 01:00:59:787 PDTProbe A Mechanical Shock1.05m/s²---
2017/03/22T 00:59:39:052 PDTProbe A Mechanical Shock0.53m/s²---
2017/03/22T 00:57:38:092 PDTProbe A Mechanical Shock1.22m/s²---
2017/03/22T 00:50:14:148 PDTProbe A Mechanical Shock0.52m/s²---
2017/03/22T 00:49:56:923 PDTProbe A Mechanical Shock0.64m/s²---
2017/03/22T 00:49:39:269 PDTProbe A Mechanical Shock0.65m/s²---
2017/03/22T 00:49:23:687 PDTProbe A Mechanical Shock1.12m/s²---
2017/03/22T 00:49:07:429 PDTProbe A Mechanical Shock0.69m/s²---
2017/03/22T 00:46:46:694 PDTProbe A Mechanical Shock0.40m/s²---
2017/03/22T 00:46:28:646 PDTProbe A Mechanical Shock0.72m/s²---
2017/03/22T 00:44:50:758 PDTProbe A Mechanical Shock0.57m/s²---
2017/03/21T 23:24:20:252 PDTProbe A Mechanical Shock0.67m/s²---
2017/03/21T 23:23:45:596 PDTProbe A Mechanical Shock0.42m/s²---
2017/03/21T 23:08:30:250 PDTProbe A Mechanical Shock1.26m/s²---
2017/03/21T 23:08:12:641 PDTProbe A Mechanical Shock1.26m/s²---
2017/03/21T 23:07:51:681 PDTProbe A Mechanical Shock0.58m/s²---
2017/03/21T 16:01:40:880 PDTPhase Current Trigger------
2017/03/21T 13:01:10:654 PDTSnapshot------
2017/03/21T 00:18:04:727 PDTProbe A Mechanical Shock0.92m/s²---
2017/03/20T 22:54:35:501 PDTProbe A Mechanical Shock0.57m/s²---
2017/03/20T 20:55:38:662 PDTProbe A Mechanical Shock0.34m/s²---
2017/03/20T 13:01:09:592 PDTSnapshot------
2017/03/19T 13:01:08:276 PDTSnapshot------
2017/03/18T 13:01:07:083 PDTSnapshot------
2017/03/18T 07:37:00:167 PDTVoltage Sag87.66%0.050
2017/03/18T 07:37:00:158 PDTWaveshape Change------
2017/03/17T 16:35:30:373 PDTWaveshape Change------
2017/03/17T 15:14:24:848 PDTPhase Current Trigger------
2017/03/17T 13:01:06:086 PDTSnapshot------
2017/03/16T 13:01:05:371 PDTSnapshot------
2017/03/16T 09:43:08:478 PDTWaveshape Change------
2017/03/16T 09:41:41:996 PDTWaveshape Change------
2017/03/16T 09:30:53:493 PDTWaveshape Change------
2017/03/16T 09:18:04:022 PDTWaveshape Change------
2017/03/16T 08:53:11:201 PDTWaveshape Change------
2017/03/16T 08:52:46:175 PDTWaveshape Change------
2017/03/15T 13:01:03:697 PDTSnapshot------
2017/03/15T 10:06:54:284 PDTProbe B Mechanical Shock0.44m/s²---
2017/03/14T 17:17:30:883 PDTPhase Current Trigger------
2017/03/14T 16:28:47:749 PDTPhase Current Trigger------
2017/03/14T 14:49:36:869 PDTPhase Current Trigger------
2017/03/14T 13:01:02:461 PDTSnapshot------
2017/03/13T 16:24:41:103 PDTPhase Current Trigger------
2017/03/13T 16:03:54:119 PDTPhase Current Trigger------
2017/03/13T 15:18:23:990 PDTPhase Current Trigger------
2017/03/13T 13:25:26:589 PDTWaveshape Change------
2017/03/13T 13:01:01:378 PDTSnapshot------
2017/03/13T 12:40:01:432 PDTWaveshape Change------
2017/03/13T 11:48:48:964 PDTWaveshape Change------
2017/03/12T 13:01:00:133 PDTSnapshot------
2017/03/11T 12:00:58:955 PSTSnapshot------
2017/03/10T 16:58:03:044 PSTPhase Current Trigger------
2017/03/10T 16:40:32:034 PSTPhase Current Trigger------
2017/03/10T 15:12:46:933 PSTWaveshape Change------
2017/03/10T 12:00:58:034 PSTSnapshot------
2017/03/09T 16:07:07:275 PSTPhase Current Trigger------
2017/03/09T 12:00:56:562 PSTSnapshot------
2017/03/08T 16:05:44:124 PSTProbe B Mechanical Shock0.26m/s²---
2017/03/08T 12:00:55:741 PSTSnapshot------
2017/03/08T 11:43:08:957 PSTProbe B Mechanical Shock0.23m/s²---
2017/03/08T 11:42:07:097 PSTProbe B Mechanical Shock0.81m/s²---
2017/03/08T 11:39:53:179 PSTProbe B Mechanical Shock0.14m/s²---
2017/03/08T 11:39:31:130 PSTProbe B Mechanical Shock0.22m/s²---
2017/03/08T 11:38:47:482 PSTProbe B Mechanical Shock0.24m/s²---
2017/03/08T 11:20:00:891 PSTProbe B Mechanical Shock0.22m/s²---
2017/03/08T 11:19:22:433 PSTProbe B Mechanical Shock1.83m/s²---
2017/03/08T 11:19:02:556 PSTProbe B Mechanical Shock0.29m/s²---
2017/03/08T 11:18:17:835 PSTProbe B Mechanical Shock0.15m/s²---
2017/03/08T 11:18:01:948 PSTProbe B Mechanical Shock0.44m/s²---
2017/03/08T 11:08:29:355 PSTProbe B Mechanical Shock0.59m/s²---
2017/03/08T 11:08:08:064 PSTProbe B Mechanical Shock0.15m/s²---
2017/03/08T 11:07:28:351 PSTProbe B Mechanical Shock0.53m/s²---
2017/03/07T 12:00:54:205 PSTSnapshot------
2017/03/07T 10:00:22:803 PSTProbe A Mechanical Shock0.60m/s²---
2017/03/06T 12:00:53:156 PSTSnapshot------
2017/03/06T 08:30:18:479 PSTProbe A Mechanical Shock0.47m/s²---
2017/03/06T 06:34:42:566 PSTProbe A Mechanical Shock0.53m/s²---
2017/03/06T 02:44:42:869 PSTProbe A Mechanical Shock1.07m/s²---
2017/03/06T 02:36:59:860 PSTProbe A Mechanical Shock1.06m/s²---
2017/03/06T 00:50:10:730 PSTProbe A Mechanical Shock0.32m/s²---
2017/03/06T 00:46:28:427 PSTProbe A Mechanical Shock0.27m/s²---
2017/03/06T 00:45:52:879 PSTProbe A Mechanical Shock0.99m/s²---
2017/03/05T 19:49:34:540 PSTHigh Frequency Impulse312.00V---
2017/03/05T 12:00:51:848 PSTSnapshot------
2017/03/05T 07:29:41:834 PSTProbe A Mechanical Shock0.68m/s²---
2017/03/05T 07:29:08:226 PSTProbe A Mechanical Shock0.63m/s²---
2017/03/05T 06:00:52:208 PSTProbe A Mechanical Shock0.59m/s²---
2017/03/05T 03:44:13:998 PSTProbe A Mechanical Shock0.31m/s²---
2017/03/04T 22:14:36:310 PSTProbe A Mechanical Shock0.27m/s²---
2017/03/04T 22:12:14:255 PSTProbe A Mechanical Shock0.37m/s²---
2017/03/04T 22:09:29:272 PSTProbe A Mechanical Shock0.43m/s²---
2017/03/04T 21:43:50:137 PSTProbe A Mechanical Shock0.76m/s²---
2017/03/04T 21:03:54:440 PSTProbe A Mechanical Shock0.37m/s²---
2017/03/04T 21:02:09:096 PSTProbe A Mechanical Shock0.71m/s²---
2017/03/04T 20:56:08:412 PSTProbe A Mechanical Shock0.54m/s²---
2017/03/04T 20:55:48:591 PSTProbe A Mechanical Shock0.52m/s²---
2017/03/04T 20:55:34:922 PSTProbe A Mechanical Shock1.09m/s²---
2017/03/04T 20:55:12:462 PSTProbe A Mechanical Shock0.63m/s²---
2017/03/04T 20:54:52:834 PSTProbe A Mechanical Shock1.00m/s²---
2017/03/04T 20:54:31:314 PSTProbe A Mechanical Shock1.03m/s²---
2017/03/04T 20:54:10:322 PSTProbe A Mechanical Shock0.65m/s²---
2017/03/04T 20:53:47:842 PSTProbe A Mechanical Shock0.76m/s²---
2017/03/04T 20:53:09:859 PSTProbe A Mechanical Shock0.84m/s²---
2017/03/04T 20:52:09:603 PSTProbe A Mechanical Shock0.66m/s²---
2017/03/04T 20:11:44:657 PSTProbe A Mechanical Shock0.30m/s²---
2017/03/04T 20:08:57:959 PSTProbe A Mechanical Shock0.46m/s²---
2017/03/04T 20:08:37:651 PSTProbe A Mechanical Shock0.25m/s²---
2017/03/04T 20:08:04:218 PSTProbe A Mechanical Shock0.79m/s²---
2017/03/04T 20:01:40:852 PSTProbe A Mechanical Shock0.93m/s²---
2017/03/04T 19:47:58:510 PSTProbe A Mechanical Shock0.32m/s²---
2017/03/04T 19:39:48:624 PSTProbe A Mechanical Shock1.35m/s²---
2017/03/04T 19:37:39:665 PSTProbe A Mechanical Shock0.38m/s²---
2017/03/04T 19:37:02:513 PSTProbe A Mechanical Shock0.66m/s²---
2017/03/04T 19:36:38:431 PSTProbe A Mechanical Shock0.28m/s²---
2017/03/04T 19:36:24:407 PSTProbe A Mechanical Shock0.36m/s²---
2017/03/04T 19:36:05:329 PSTProbe A Mechanical Shock0.68m/s²---
2017/03/04T 19:34:20:210 PSTProbe A Mechanical Shock1.27m/s²---
2017/03/04T 19:31:37:523 PSTProbe A Mechanical Shock0.28m/s²---
2017/03/04T 16:49:12:083 PSTProbe B Mechanical Shock0.58m/s²---
2017/03/04T 12:43:58:471 PSTProbe A Mechanical Shock0.58m/s²---
2017/03/04T 12:00:51:025 PSTSnapshot------
2017/03/03T 14:42:19:327 PSTProbe B Mechanical Shock0.26m/s²---
2017/03/03T 14:31:09:604 PSTProbe B Mechanical Shock0.65m/s²---
2017/03/03T 14:16:01:161 PSTProbe B Mechanical Shock0.61m/s²---
2017/03/03T 12:00:49:863 PSTSnapshot------
2017/03/02T 15:49:11:159 PSTWaveshape Change------
2017/03/02T 12:00:48:810 PSTSnapshot------
2017/03/02T 11:56:42:670 PSTProbe A Mechanical Shock0.93m/s²---
2017/03/01T 15:46:04:274 PSTProbe B Mechanical Shock0.11m/s²---
2017/03/01T 12:00:47:448 PSTSnapshot------
2017/03/01T 10:03:04:943 PSTWaveshape Change------